[[{"header":{"parameterUnit":"m.s-1","parameterCategory":1,"la1":30.2991,"la2":30.254,"lo1":-89.0895,"lo2":-89.0444,"dy":0.0017,"dx":0.0017,"nx":28,"ny":28,"refTime":"2024-07-08T21:00:00:Z","depth":0,"parameterNumber":2,"parameterNumberName":"U-component_of_WINDS"},"data":[0,0,0,0,0,0,0,0,0,0,0,0,0,0,0,0,0,0,0,0,0,0,0,0,0,0,0,0,0,0,0,0,0,0,0,0,0,0,0,0,0,0,0,0,0,0,0,0,0,0,0,0,0,0,0,0,0,0,4.1193,4.1193,0,4.1237,4.1238,4.1238,4.1192,4.119,4.1189,4.1187,4.1231,4.1234,4.1237,0,0,0,0,0,0,0,0,0,0,0,0,0,4.1065,4.1068,4.1193,4.1193,4.1194,4.1237,4.1238,4.1239,4.1192,4.119,4.1188,4.1186,4.123,4.1234,4.1237,0,0,0,0,0,0,0,0,0,0,0,0,0,4.1117,4.1069,4.1193,4.1176,4.1175,4.1237,4.1238,4.1239,4.1193,4.119,4.1188,4.1185,4.1229,4.1233,4.1238,4.1318,0,0,4.1251,4.1253,0,0,0,0,0,0,0,0,4.1114,4.1121,4.1178,4.1177,4.1176,4.1206,4.1209,4.1265,4.1194,4.1186,4.1187,4.1184,4.1225,4.123,4.1244,4.132,4.1322,4.1251,4.1254,4.1255,4.1257,0,0,0,0,0,0,0,4.111,4.1119,4.121,4.1179,4.1178,4.1166,4.117,4.122,4.122,4.1187,4.1183,4.1189,4.1224,4.124,4.1244,4.1322,4.1251,4.1255,4.1257,4.1259,4.1464,4.1467,0,0,0,0,0,0,4.1109,4.1116,4.1209,4.1212,4.1138,4.117,4.1175,4.12,4.1219,4.122,4.1192,4.1187,4.1234,4.124,4.1246,4.1339,4.1255,4.1259,4.1262,4.1461,4.1465,4.1468,0,0,0,0,0,0,4.1106,4.1117,4.1207,4.1163,4.1174,4.1175,4.1203,4.1202,4.1217,4.1223,4.1223,4.1208,4.1232,4.124,4.13,4.134,4.1261,4.1265,4.1458,4.1462,4.1466,4.1527,0,0,0,0,0,0,4.1103,4.1117,4.1148,4.1164,4.1176,4.1261,4.1206,4.1205,4.1225,4.1219,4.1238,4.1239,4.123,4.1294,4.1304,4.1344,4.1269,4.1454,4.146,4.1465,4.1522,4.1533,4.1543,0,0,0,0,0,4.1098,4.1164,4.115,4.1161,4.1215,4.1264,4.127,4.126,4.1229,4.1259,4.1263,4.1238,4.1334,4.13,4.1311,4.1354,4.1451,4.1458,4.1464,4.1517,4.1531,4.1543,0,0,0,0,0,0,4.1152,4.1165,4.115,4.1223,4.1242,4.1256,4.1294,4.1275,4.1304,4.1298,4.1283,4.1288,4.1351,4.1358,4.132,4.1431,4.1388,4.1397,4.1424,4.1437,4.1448,4.1444,4.1272,0,0,0,0,0,4.1172,4.1211,4.1221,4.1284,4.1294,4.1293,4.1313,4.1304,4.1323,4.1331,4.1339,4.1358,4.1392,4.1416,4.1448,4.1523,4.1525,4.1558,4.1568,4.1577,4.1585,4.1623,4.1637,4.1489,4.1489,4.1489,0,0,4.1214,4.1226,4.1252,4.1295,4.1309,4.1348,4.13,4.1344,4.1373,4.1338,4.1394,4.1401,4.1421,4.1489,4.1519,4.1497,4.1626,4.1585,4.1592,4.1595,4.1631,4.1645,4.1658,4.1493,4.1492,4.1492,0,0,4.1311,4.1325,4.1378,4.1393,4.1415,4.1413,4.1426,4.1442,4.1445,4.1501,4.1475,4.1509,4.1569,4.1584,4.16,4.1701,4.1679,4.1712,4.1767,4.1805,4.1816,4.1827,4.1861,4.1873,4.172,4.172,4.172,0,4.136,4.1419,4.1407,4.1453,4.1472,4.1442,4.1495,4.151,4.1541,4.1554,4.153,4.1603,4.1615,4.1685,4.1709,4.1724,4.1736,4.1709,4.1816,4.1826,4.1835,4.1868,4.1881,4.1724,4.1723,4.1723,4.1722,0,4.1478,4.1519,4.1559,4.159,4.1613,4.1662,4.1657,4.1682,4.167,4.1671,4.1728,4.1741,4.1775,4.1791,4.178,4.1858,4.1844,4.1818,4.1773,4.1853,4.1883,4.1896,4.1729,4.1728,4.1727,4.1726,0,0,4.1608,4.1632,4.1646,4.1659,4.1681,4.1712,4.1759,4.1792,4.1813,4.1835,4.1873,4.1924,4.19,4.1918,4.1908,4.1941,4.2018,4.1911,4.1911,4.1929,4.2103,4.2121,4.2136,4.2004,4.2006,4.2008,4.2101,0,4.1704,4.1786,4.1777,4.1854,4.1891,4.1863,4.1904,4.1921,4.1923,4.1954,4.1955,4.1991,4.1957,4.1967,4.1999,4.2002,4.2052,4.1995,4.2038,4.2039,4.2032,4.2152,4.2171,4.2258,4.2113,4.2115,4.2116,0,4.1826,4.1852,4.1934,4.1949,4.1964,4.2001,4.2029,4.2059,4.2078,4.2076,4.2096,4.208,4.2126,4.2082,4.2144,4.2105,4.2122,4.2126,4.2129,4.2131,4.2081,4.2155,4.2286,4.2298,4.2135,4.2133,4.2132,0,4.1911,4.1967,4.2023,4.2035,4.2053,4.208,4.2089,4.2104,4.2124,4.2149,4.2161,4.2191,4.2207,4.223,4.2222,4.2191,4.2285,4.2241,4.2284,4.2284,4.2304,4.2303,4.2437,4.2318,4.2318,4.2318,4.2318,0,4.2017,4.2068,4.2061,4.2095,4.215,4.2138,4.2193,4.2198,4.2212,4.2246,4.2224,4.2256,4.2245,4.2276,4.227,4.2321,4.2329,4.2328,4.2326,4.2329,4.2329,4.2339,4.2332,4.2321,4.2321,4.232,4.2319,0,4.2121,4.2118,4.2177,4.2189,4.2194,4.2234,4.2244,4.2275,4.2275,4.2318,4.2328,4.2327,4.2362,4.2357,4.2397,4.2393,4.2456,4.2447,4.245,4.2447,4.249,4.2485,4.2633,4.2651,4.2523,4.2524,4.2525,0,4.2188,4.2226,4.2243,4.2264,4.2275,4.2309,4.2329,4.2319,4.234,4.2363,4.2391,4.2425,4.2451,4.2508,4.2511,4.254,4.253,4.2581,4.2535,4.2536,4.2529,4.2526,4.2529,4.2589,4.2591,4.2592,4.2593,0,4.2307,4.2303,4.2333,4.2363,4.2387,4.241,4.243,4.2448,4.2439,4.2465,4.25,4.252,4.256,4.2593,4.262,4.2628,4.2609,4.2607,4.2618,4.2621,4.2621,4.2619,4.2472,4.2604,4.2602,4.2602,4.2601,4.2601,4.2393,4.2425,4.2441,4.2475,4.2489,4.2508,4.2537,4.2541,4.2571,4.2602,4.2594,4.2634,4.265,4.2685,4.2696,4.2726,4.2708,4.2724,4.2728,4.2732,4.2736,4.2617,4.2731,4.2731,4.2731,4.2731,4.273,0,4.2509,4.2518,4.2549,4.2578,4.2604,4.2584,4.2605,4.2628,4.2663,4.268,4.2706,4.2746,4.2777,4.2782,4.2811,4.2835,4.2826,4.2842,4.284,4.2841,4.2752,4.2739,4.2849,4.2849,4.2849,4.2848,4.2848,4.2848,4.2572,4.2624,4.2623,4.2681,4.269,4.2729,4.2742,4.2759,4.2772,4.2818,4.2844,4.2847,4.2859,4.2888,4.2916,4.2916,4.2927,4.2947,4.2944,4.286,4.2848,4.2837,4.2824,4.295,4.295,4.303,4.3031,4.3031]},{"header":{"parameterUnit":"m.s-1","parameterCategory":1,"la1":30.2991,"la2":30.254,"lo1":-89.0895,"lo2":-89.0444,"dy":0.0017,"dx":0.0017,"nx":28,"ny":28,"refTime":"2024-07-08T21:00:00:Z","depth":0,"parameterNumber":3,"parameterNumberName":"V-component_of_WINDS"},"data":[0,0,0,0,0,0,0,0,0,0,0,0,0,0,0,0,0,0,0,0,0,0,0,0,0,0,0,0,0,0,0,0,0,0,0,0,0,0,0,0,0,0,0,0,0,0,0,0,0,0,0,0,0,0,0,0,0,0,6.9441,6.9442,0,6.9489,6.9489,6.949,6.9453,6.9451,6.945,6.9448,6.9491,6.9494,6.9496,0,0,0,0,0,0,0,0,0,0,0,0,0,6.9313,6.9315,6.9441,6.9442,6.9442,6.9488,6.9489,6.949,6.9453,6.9451,6.9449,6.9447,6.949,6.9493,6.9496,0,0,0,0,0,0,0,0,0,0,0,0,0,6.9365,6.9316,6.9441,6.943,6.9429,6.9488,6.9489,6.949,6.9453,6.9451,6.9449,6.9447,6.9489,6.9493,6.9497,6.9568,0,0,6.9509,6.951,0,0,0,0,0,0,0,0,6.9362,6.937,6.9431,6.9431,6.943,6.9463,6.946,6.9516,6.9454,6.9444,6.9448,6.9445,6.9483,6.9487,6.9501,6.957,6.9572,6.9509,6.9511,6.9513,6.9514,0,0,0,0,0,0,0,6.9359,6.9368,6.946,6.9432,6.9431,6.942,6.9425,6.947,6.9476,6.9445,6.9442,6.9449,6.9482,6.9498,6.9502,6.9572,6.9509,6.9512,6.9515,6.9516,6.9701,6.9703,0,0,0,0,0,0,6.9357,6.9365,6.9458,6.9461,6.939,6.9425,6.943,6.9454,6.9475,6.9476,6.9451,6.9447,6.9492,6.9497,6.9503,6.9587,6.9513,6.9517,6.9519,6.9698,6.9701,6.9704,0,0,0,0,0,0,6.9354,6.9366,6.9456,6.9412,6.9423,6.9429,6.9457,6.9457,6.9472,6.948,6.948,6.9465,6.949,6.9498,6.9552,6.9588,6.9518,6.9522,6.9695,6.9699,6.9703,6.9756,0,0,0,0,0,0,6.9351,6.9365,6.9393,6.9413,6.9426,6.9506,6.9459,6.9459,6.9479,6.9475,6.9494,6.9495,6.9489,6.9547,6.9556,6.9592,6.9525,6.9692,6.9697,6.9701,6.9751,6.9762,6.977,0,0,0,0,0,6.9346,6.9405,6.9395,6.9406,6.9462,6.9509,6.9515,6.9509,6.9482,6.951,6.9515,6.9494,6.9583,6.9553,6.9563,6.9601,6.969,6.9696,6.9701,6.9747,6.976,6.977,0,0,0,0,0,0,6.9387,6.9408,6.9396,6.9464,6.9485,6.9502,6.9537,6.9523,6.955,6.9545,6.9534,6.9539,6.9596,6.9604,6.957,6.967,6.9632,6.964,6.9663,6.9675,6.9684,6.9681,6.9528,0,0,0,0,0,6.9405,6.9443,6.9458,6.9516,6.9528,6.9531,6.9551,6.9545,6.9565,6.9573,6.9582,6.9601,6.9633,6.9655,6.9685,6.9753,6.9755,6.9784,6.9793,6.9801,6.9808,6.9843,6.9856,6.9723,6.9723,6.9723,0,0,6.944,6.9456,6.948,6.9525,6.954,6.9578,6.9538,6.958,6.9608,6.9579,6.9631,6.9639,6.9659,6.9721,6.9748,6.9729,6.9845,6.9808,6.9814,6.9817,6.985,6.9863,6.9874,6.9727,6.9726,6.9726,0,0,6.9523,6.954,6.959,6.9607,6.9632,6.9634,6.9646,6.9666,6.967,6.9723,6.9702,6.9734,6.979,6.9805,6.982,6.991,6.9891,6.992,6.9969,7.0004,7.0014,7.0023,7.0055,7.0066,6.9927,6.9927,6.9927,0,6.9563,6.9622,6.9617,6.9662,6.9681,6.9659,6.9708,6.9724,6.9757,6.977,6.9748,6.9818,6.983,6.9895,6.9917,6.993,6.9942,6.9917,7.0014,7.0023,7.0031,7.0061,7.0073,6.993,6.993,6.993,6.9929,0,6.967,6.9711,6.9748,6.9782,6.9806,6.9853,6.9853,6.9877,6.9869,6.9873,6.9926,6.994,6.9973,6.9987,6.9979,7.0051,7.0038,7.0015,6.9976,7.0047,7.0075,7.0086,6.9935,6.9934,6.9933,6.9932,0,0,6.978,6.9812,6.9825,6.9841,6.9867,6.9897,6.9942,6.9976,6.9996,7.0019,7.0055,7.0104,7.0083,7.01,7.0093,7.0124,7.0194,7.0098,7.0098,7.0114,7.0272,7.0288,7.0302,7.0182,7.0184,7.0186,7.027,0,6.9864,6.9945,6.9942,7.0016,7.0053,7.0033,7.0072,7.0091,7.0095,7.0126,7.013,7.0164,7.0135,7.0145,7.0174,7.0179,7.0225,7.0173,7.0214,7.0215,7.0209,7.0316,7.0334,7.0413,7.0281,7.0283,7.0284,0,6.9973,7.0003,7.0081,7.0102,7.0117,7.0153,7.0183,7.0213,7.0234,7.0235,7.0255,7.0243,7.0286,7.0247,7.0306,7.0271,7.0287,7.0292,7.0295,7.0297,7.0253,7.0321,7.0438,7.0449,7.0301,7.03,7.0299,0,7.0045,7.0103,7.0158,7.0172,7.0197,7.0223,7.0234,7.0253,7.0273,7.0299,7.0312,7.0342,7.0358,7.0381,7.0377,7.0349,7.0436,7.0397,7.0437,7.0437,7.0455,7.0454,7.0576,7.0468,7.0468,7.0467,7.0467,0,7.0139,7.0188,7.0191,7.0224,7.0278,7.0273,7.0325,7.0334,7.0351,7.0384,7.0367,7.0398,7.0392,7.0422,7.0419,7.0468,7.0475,7.0476,7.0475,7.0477,7.0477,7.0487,7.0481,7.0471,7.047,7.0469,7.0469,0,7.0227,7.0232,7.029,7.031,7.0316,7.0354,7.037,7.0401,7.0405,7.0447,7.0456,7.0461,7.0496,7.0495,7.0534,7.0532,7.0592,7.0584,7.0586,7.0584,7.0624,7.062,7.0755,7.0772,7.0654,7.0655,7.0656,0,7.0287,7.0324,7.0349,7.0371,7.0385,7.042,7.0442,7.0438,7.046,7.0487,7.0514,7.0548,7.0575,7.0632,7.0638,7.0668,7.066,7.0705,7.0664,7.0666,7.0659,7.0657,7.066,7.0713,7.0714,7.0715,7.0716,0,7.0392,7.0392,7.0425,7.0458,7.0484,7.051,7.0533,7.0552,7.055,7.0576,7.0613,7.0634,7.0675,7.0708,7.0737,7.0746,7.0731,7.073,7.074,7.0743,7.0742,7.0742,7.0607,7.0726,7.0725,7.0724,7.0724,7.0723,7.0467,7.0499,7.0521,7.0558,7.0576,7.0598,7.0628,7.0636,7.0667,7.0702,7.0697,7.0738,7.0757,7.0794,7.0806,7.0837,7.082,7.0836,7.084,7.0844,7.0848,7.0738,7.0842,7.0842,7.0841,7.0841,7.0841,0,7.057,7.0584,7.0618,7.0652,7.068,7.0665,7.069,7.0714,7.0751,7.0771,7.0799,7.0841,7.0873,7.0882,7.0913,7.0935,7.0929,7.0943,7.0941,7.0943,7.0861,7.0848,7.0948,7.0948,7.0948,7.0948,7.0948,7.0948,7.0627,7.068,7.0684,7.0745,7.0758,7.0799,7.0815,7.0835,7.0851,7.0899,7.0927,7.0933,7.0948,7.098,7.1008,7.101,7.1021,7.1039,7.1037,7.096,7.0949,7.0939,7.0927,7.1042,7.1042,7.1117,7.1118,7.1118]}]]